Vertical_Velocity
3 2 4 0 2 2 -4 4 -8 -4 -8 2 3 -1 1 -0 -1 -2 -0 -1 -3 -2 -1 1 -0 1 0 1 1 -1 1 0 -0 4 2 4 5 0 3 3 1 0 -11 -1
-16 -1 -0 -4 1 1 3 -2 -9 7 -20 9 3 0 2 2 -1 -3 -0 -0 -0 -2 -2 -2 -1 1 3 2 0 -1 2 -0 -1 -2 3 3 4 1 -0 2 -2 -6 -2 -5
-8 1 -0 -3 -0 -2 2 0 4 -2 2 0 -1 3 -2 1 1 -2 -2 1 1 -1 -2 -2 -0 -0 1 3 1 -1 -1 0 -0 -2 -1 1 4 6 3 3 4 1 4 2
-6 -8 -5 1 1 0 -1 0 -1 -2 -1 -1 -1 1 -1 0 0 1 -0 -0 -1 1 -0 -2 -2 -1 -0 2 2 -1 -2 -1 -2 -0 -2 -1 2 2 3 2 -1 -2 9 -9
-1 -1 -19 -4 -2 -0 1 -8 -1 -1 -1 -1 0 -3 6 1 1 1 2 0 -2 -1 -0 -2 -2 -1 -2 0 2 2 -2 -2 -1 -2 -1 -1 -3 2 1 3 3 -1 -2 0
0 0 -1 -2 -0 1 0 -9 0 1 -0 -1 0 -5 -2 2 1 1 0 0 0 -4 -3 -1 -4 -3 -2 -3 0 3 2 -2 -2 1 -1 1 1 1 2 3 3 6 -5 -3
4 -3 -12 3 -1 2 -3 -2 1 1 2 1 -2 -1 -1 -1 1 1 1 1 1 1 -1 -2 -2 -6 -4 -4 -4 -0 3 2 -3 -2 1 -1 0 -0 3 2 3 2 6 4
3 1 -12 -2 2 2 0 1 1 -0 -0 -0 -1 2 -1 0 -1 1 2 0 1 1 0 -2 -2 -2 -5 -5 -3 -4 -1 0 2 -2 -3 -1 -1 0 1 5 5 3 7 3
-6 -16 -7 4 4 2 1 -1 1 0 1 -0 1 1 1 1 -0 -1 -0 1 -0 2 2 0 -2 -2 -2 -5 -4 -3 -5 -0 -1 2 -2 -1 -2 -1 -1 1 6 6 6 9
6 6 -4 6 1 1 -3 -1 0 0 0 -0 1 1 -1 2 1 1 1 -0 -0 -0 1 1 2 -2 -2 -3 -5 -4 -2 -6 -3 1 -2 2 -1 -3 0 0 -2 3 7 7
-15 -3 1 2 -3 1 1 1 1 2 1 1 -1 3 -2 3 -0 -0 0 1 -1 -2 -1 -2 1 0 -0 -2 -3 -4 -5 0 -5 1 1 1 0 0 -2 -1 1 -2 3 -3
-14 5 -1 2 -2 -1 0 -1 0 1 1 -2 -2 -0 -1 1 -1 -1 -0 -0 1 -0 -0 -2 -1 -0 -1 -0 -1 -2 -3 -5 -1 -0 -7 -3 -3 1 1 -2 -3 -1 -3 -4
-1 -1 2 3 1 -1 1 0 0 -1 -2 3 -1 -1 -1 -1 -3 -2 -1 -1 -1 0 -0 -1 -1 -1 -3 -2 -0 -1 -2 -4 -1 -6 1 -1 -2 -0 -2 -1 -2 2 -2 -2
3 1 7 1 1 2 -2 -2 -0 0 -1 -2 1 1 -2 -1 -1 -3 -1 -0 0 -0 -2 -1 1 0 -3 -0 -1 -1 -1 -1 -4 -2 -3 -3 0 -2 -3 1 -1 2 -1 -0
0 8 1 3 5 4 0 -4 -1 1 -1 3 -1 1 -1 0 -0 -3 -2 -2 0 -0 -1 -1 -1 -2 -1 -1 -1 -1 1 -0 -1 -2 -4 -0 -3 -0 0 -2 -4 -1 -4 1
4 2 -0 -0 -2 2 -3 2 -4 3 -1 0 1 -0 -0 -1 -0 -2 -2 -1 -2 -0 -1 1 -0 -2 -0 0 -0 -3 -2 -0 0 -1 -0 -4 -3 1 -1 -1 -2 -1 -2 -4
9 8 3 -2 -3 -0 2 1 -1 -0 -1 0 -1 -1 -0 -0 -1 -2 -2 -1 -2 -2 -1 -1 -0 -2 -2 -1 1 -1 0 1 1 1 -1 -1 -1 -6 -3 1 -1 -3 -2 3
1 -5 -3 -3 -5 -4 2 0 1 1 -0 0 -1 -1 -1 -1 -2 -0 -2 -1 -0 -3 -2 -0 -0 -2 -2 -1 -0 -1 -1 0 2 2 1 -0 -0 2 -0 -4 -5 -3 -1 -6
-4 -7 -4 -1 3 -3 -1 0 0 -0 1 0 -0 -1 -0 -1 -1 -1 -0 -1 0 -2 -2 -2 -2 -2 -2 -1 -1 -1 0 1 1 2 1 -1 -1 -1 -0 2 1 -1 -5 -3
-4 1 4 2 2 -1 -2 -1 -0 2 1 1 -1 -1 0 1 0 -0 -0 -1 0 -2 -1 -2 -1 -2 -1 -1 -1 -1 1 1 1 0 1 1 -0 -1 -1 -2 -2 1 4 0
3 5 4 1 -0 0 -1 -0 0 1 1 0 -1 -0 -0 0 1 -0 0 0 -0 -1 -1 0 -1 -1 -2 -2 -2 -0 -0 1 1 1 1 -0 -0 1 2 -0 -2 -3 -3 -2
0 3 1 -0 -2 -3 -1 -1 1 1 1 1 -0 -0 -0 0 1 -0 -1 -0 -0 0 -2 -2 -0 -1 -2 -2 -1 1 2 1 1 0 1 0 -1 -1 0 2 2 -0 -1 -1
3 -2 -3 -2 -2 -1 -0 -0 1 1 1 -0 -0 -2 -0 -0 1 -2 -1 0 -0 -1 -2 -2 -1 -1 -1 -1 1 2 1 1 1 0 0 -1 -2 -2 -1 -1 0 1 0 -1
-4 -2 -1 -2 -2 -0 -0 1 2 2 0 1 -1 -0 -1 -0 -1 -1 -1 -1 -0 -1 -1 -2 -2 -1 -3 -1 1 1 1 1 1 0 -0 -0 2 1 1 0 -1 -0 1 1
-2 -2 -1 -1 -1 -1 0 1 0 0 2 -0 -0 -0 -0 -1 -1 0 -0 -1 -1 -2 -1 -2 -2 -1 -1 1 1 0 0 1 1 1 2 -0 -0 1 1 1 1 2 -0 -2
-0 -1 -1 -1 -0 0 0 -0 0 1 -0 0 -1 -1 -1 -0 -0 -1 -1 -0 -0 -1 -1 -2 -2 -1 0 1 1 0 -1 -2 -1 -1 -1 -0 -1 -1 -1 -2 -2 -1 -1 -2
-1 0 0 0 1 1 1 1 1 1 0 -0 -0 -1 0 -0 -1 -1 -1 -0 -0 -1 -1 -1 -1 0 1 0 -0 -0 -1 -1 -2 -2 -2 -2 -2 -1 -1 -1 -0 -1 -1 -1
Height
3017 3013 3009 3005 3004 3003 3001 3001 2998 2984 2980 2976 2973 2969 2966 2960 2954 2947 2941 2935 2930 2924 2920 2918 2916 2913 2909 2909 2907 2908 2909 2911 2914 2919 2924 2931 2939 2945 2951 2956 2962 2969 2978 2984
3007 3004 3001 2996 2995 2994 2994 2992 2987 2983 2977 2976 2971 2967 2963 2957 2952 2946 2940 2933 2929 2924 2919 2916 2915 2913 2909 2908 2907 2908 2908 2910 2913 2915 2919 2924 2931 2938 2943 2950 2956 2964 2968 2976
3004 3001 2995 2987 2984 2985 2985 2984 2984 2980 2977 2973 2969 2964 2959 2955 2949 2943 2938 2933 2927 2923 2918 2915 2913 2912 2909 2907 2907 2907 2908 2908 2911 2913 2915 2919 2925 2930 2937 2943 2949 2954 2961 2965
3005 3000 2994 2984 2983 2983 2982 2980 2978 2976 2973 2969 2965 2961 2956 2951 2946 2940 2936 2932 2927 2922 2918 2914 2911 2910 2908 2906 2905 2906 2906 2908 2909 2911 2913 2915 2919 2926 2931 2937 2942 2948 2954 2957
3009 3003 2990 2978 2981 2981 2979 2975 2972 2971 2969 2965 2961 2958 2954 2949 2944 2938 2933 2929 2926 2921 2917 2913 2910 2907 2907 2905 2903 2904 2904 2905 2907 2908 2910 2913 2916 2919 2925 2930 2936 2941 2946 2950
3007 3006 2993 2979 2979 2977 2975 2968 2968 2966 2963 2960 2956 2952 2950 2945 2941 2937 2932 2927 2923 2918 2915 2912 2908 2906 2904 2903 2902 2901 2902 2902 2903 2905 2907 2910 2913 2916 2919 2923 2928 2932 2939 2943
3001 2999 2982 2977 2977 2975 2975 2974 2966 2962 2958 2955 2952 2949 2945 2942 2938 2934 2930 2925 2920 2916 2913 2910 2907 2904 2902 2900 2899 2898 2898 2899 2900 2901 2902 2905 2907 2910 2912 2916 2919 2924 2928 2933
2992 2992 2979 2973 2973 2973 2970 2965 2961 2957 2953 2950 2947 2944 2940 2937 2935 2931 2927 2923 2919 2914 2910 2908 2905 2902 2900 2898 2897 2895 2895 2895 2897 2897 2898 2900 2902 2904 2906 2907 2910 2914 2917 2922
2983 2974 2971 2969 2968 2966 2962 2959 2955 2951 2948 2945 2943 2940 2936 2932 2929 2926 2923 2920 2917 2913 2909 2905 2903 2900 2897 2894 2894 2892 2891 2891 2892 2895 2895 2895 2897 2898 2899 2901 2901 2903 2907 2911
2970 2964 2965 2964 2961 2960 2956 2953 2949 2946 2943 2940 2937 2935 2931 2928 2924 2921 2918 2916 2913 2910 2907 2902 2899 2897 2894 2891 2889 2889 2888 2887 2886 2885 2888 2889 2890 2893 2894 2896 2897 2897 2898 2900
2955 2956 2958 2958 2956 2954 2951 2947 2943 2940 2937 2934 2931 2930 2925 2923 2919 2916 2913 2911 2909 2906 2903 2899 2896 2893 2890 2888 2886 2884 2884 2884 2884 2884 2884 2885 2885 2886 2889 2890 2891 2893 2893 2894
2946 2949 2949 2951 2950 2948 2945 2941 2937 2933 2930 2928 2925 2923 2920 2918 2914 2911 2907 2905 2903 2900 2898 2895 2893 2889 2885 2883 2881 2879 2878 2879 2879 2879 2880 2881 2882 2883 2883 2885 2886 2887 2890 2892
2940 2941 2943 2946 2945 2942 2938 2934 2930 2927 2923 2920 2918 2916 2914 2912 2908 2905 2902 2899 2897 2895 2892 2889 2887 2885 2880 2878 2876 2874 2873 2873 2874 2873 2872 2872 2874 2875 2876 2879 2881 2882 2883 2884
2932 2936 2940 2940 2938 2934 2931 2928 2924 2920 2916 2912 2911 2909 2907 2905 2902 2898 2895 2893 2891 2888 2886 2883 2881 2878 2875 2874 2871 2869 2868 2868 2868 2870 2871 2870 2870 2871 2872 2873 2873 2874 2876 2877
2929 2933 2935 2933 2931 2928 2924 2920 2916 2911 2908 2905 2902 2902 2900 2898 2895 2892 2889 2886 2884 2882 2879 2877 2875 2872 2870 2868 2865 2863 2863 2863 2864 2864 2865 2867 2867 2867 2868 2868 2868 2868 2870 2871
2928 2929 2928 2927 2925 2922 2917 2912 2907 2904 2900 2898 2895 2893 2892 2890 2888 2884 2882 2880 2878 2875 2872 2870 2868 2865 2864 2861 2859 2858 2857 2858 2858 2860 2860 2861 2862 2863 2863 2863 2864 2864 2864 2864
2923 2923 2922 2922 2919 2913 2908 2903 2899 2895 2893 2890 2888 2886 2884 2882 2880 2877 2874 2872 2870 2868 2866 2864 2861 2858 2856 2854 2853 2852 2852 2853 2853 2855 2856 2857 2857 2858 2858 2858 2859 2860 2861 2860
2918 2919 2917 2913 2906 2902 2899 2895 2891 2887 2885 2883 2881 2878 2876 2874 2872 2869 2867 2865 2863 2860 2858 2856 2854 2851 2849 2847 2846 2846 2846 2847 2848 2849 2851 2852 2853 2854 2854 2854 2854 2854 2855 2857
2916 2914 2910 2904 2899 2894 2890 2886 2882 2879 2876 2875 2872 2870 2868 2866 2864 2861 2859 2857 2855 2853 2851 2849 2847 2844 2842 2841 2841 2841 2841 2842 2844 2845 2846 2847 2848 2849 2849 2849 2849 2848 2848 2849
2908 2903 2899 2895 2892 2886 2881 2877 2872 2870 2868 2866 2864 2862 2860 2858 2856 2854 2852 2850 2848 2846 2844 2842 2840 2838 2836 2836 2836 2836 2837 2838 2839 2840 2841 2842 2843 2843 2843 2843 2843 2842 2842 2842
2898 2894 2891 2887 2882 2877 2871 2867 2863 2861 2860 2859 2857 2855 2853 2851 2849 2847 2845 2843 2841 2839 2837 2835 2834 2832 2832 2832 2832 2832 2832 2833 2834 2835 2836 2837 2837 2838 2838 2837 2836 2836 2836 2836
2890 2885 2882 2877 2871 2865 2861 2857 2855 2854 2852 2851 2849 2847 2845 2844 2842 2840 2838 2836 2834 2833 2831 2830 2828 2828 2827 2827 2828 2828 2828 2828 2829 2829 2830 2830 2831 2831 2831 2831 2831 2831 2831 2831
2880 2876 2871 2865 2860 2855 2852 2849 2848 2847 2845 2843 2842 2840 2839 2837 2835 2833 2832 2830 2828 2827 2825 2825 2824 2824 2824 2824 2824 2824 2824 2824 2824 2824 2824 2824 2824 2824 2824 2825 2825 2825 2825 2825
2871 2867 2861 2855 2850 2847 2845 2843 2841 2840 2838 2836 2835 2834 2832 2830 2829 2827 2825 2824 2823 2822 2821 2821 2821 2821 2820 2820 2820 2820 2820 2819 2819 2819 2819 2819 2818 2818 2818 2818 2818 2818 2818 2818
2862 2857 2852 2847 2843 2840 2838 2837 2835 2833 2832 2830 2829 2827 2826 2824 2823 2822 2820 2820 2820 2819 2819 2819 2818 2818 2817 2817 2816 2816 2815 2814 2814 2813 2813 2812 2811 2811 2810 2809 2809 2809 2809 2809
2851 2847 2843 2839 2836 2834 2833 2831 2829 2827 2826 2825 2823 2822 2820 2819 2818 2817 2817 2817 2817 2816 2816 2816 2815 2814 2814 2813 2812 2811 2810 2809 2808 2807 2806 2805 2803 2802 2801 2800 2799 2799 2798 2798
2842 2838 2835 2833 2831 2829 2826 2825 2824 2823 2821 2819 2818 2816 2815 2814 2814 2814 2814 2814 2814 2814 2813 2812 2812 2811 2811 2810 2809 2809 2808 2807 2806 2804 2803 2801 2798 2796 2793 2791 2789 2788 2787 2787